Погода в Мураптале

Россия / Республика Башкортостан     52°26′48″N   55°48′49″E
темп.,
°C
ветер,
м/с
пор.,
м/с
влажн.,
%
обл.,
%
осадки,
мм/ч
давл.,
гПа
погр.,
м
31 июля, сб
сб3123:00+23сз125212 0.0 100811
02:00+20ссв226396 0.0 100911
05:00+19всв116996 0.0 100911
08:00+23ю2357100 0.2 1009174
11:00+29юз464145 0.6 1009717
14:00+33юз782589 0.0 10072482
17:00+34з101022100 0.1 10073393
20:00+29з61137100 0.0 1009924
1 августа, вс
вс123:00+22з226271 0.4 101015
02:00+21ююз117156 0.0 101111
05:00+19з118057 0.2 101213
08:00+22зсз237099 0.1 1013213
11:00+29зсз56430 0.1 10131553
14:00+32зсз67305 0.0 10122427
17:00+32сз67245 0.0 10122492
20:00+28зсз363199 0.0 1013151
2 августа, пн
пн223:00+23зюз114111 0.0 101311
02:00+20св11479 0.0 101411
05:00+20ююв11501 0.0 101511
08:00+24ююз11395 0.0 1016135
11:00+31з352612 0.0 10161234
14:00+34зсз452127 0.0 10143078
17:00+35ссз56195 0.0 10133467
20:00+31ссв46245 0.0 1013141
3 августа, вт
вт323:00+25св223284 0.0 101411
02:00+25в223126 0.0 101414
05:00+21вюв11444 0.0 101411
08:00+26ююв233521 0.0 1015171
11:00+34ююз352226 0.0 1014977
14:00+37юз551593 0.0 10124118
17:00+37ююз5514100 0.0 10113676
20:00+31юв242369 0.1 101165
4 августа, ср
ср423:00+29ююв5132527 0.1 1012269
02:00+23ююв344294 0.1 101247
05:00+22юв2243100 0.1 101311
08:00+27вюв133572 0.1 1013141
11:00+35ю681923 0.1 10121372
14:00+38ююз5713100 0.0 10104379
17:00+34ююз342184 0.1 10081417
20:00+30в472470 0.0 1008166